Location: Wildcat Hills Observatory
(41.6350°N, 103.6812°W)
Time: 17:55:35
(UTC-06:00)

Cosmos 1634 Rocket - Visible Passes

Search period start: 24 April 2014 00:00
Search period end: 04 May 2014 00:00
Orbit: 959 x 993 km, 82.9° (Epoch: 22 April)

Date Brightness Start Highest point End Pass type
(mag) Time Alt. Az. Time Alt. Az. Time Alt. Az.
24 Apr 5.7 01:58:17 20° E 01:59:28 22° E 02:03:57 10° NE visible
24 Apr 4.1 03:42:59 46° WSW 03:44:21 56° W 03:50:25 10° N visible
25 Apr 4.9 02:23:55 37° ESE 02:24:46 39° E 02:30:25 10° NNE visible
25 Apr 4.8 04:08:36 27° W 04:10:12 31° WNW 04:15:37 10° NNW visible
26 Apr 4.0 02:49:31 65° SE 02:50:14 72° E 02:56:22 10° NNE visible
26 Apr 5.5 04:34:12 15° W 04:36:15 18° WNW 04:40:14 10° NNW visible
27 Apr 5.9 01:30:25 18° E 01:31:07 19° E 01:35:10 10° NE visible
27 Apr 3.9 03:15:06 59° WSW 03:15:52 64° W 03:22:00 10° N visible
28 Apr 5.1 01:55:59 34° E 01:56:22 34° E 02:01:49 10° NNE visible
28 Apr 4.6 03:40:40 34° W 03:41:40 36° WNW 03:47:18 10° N visible
29 Apr 4.1 02:21:32 61° ESE 02:21:48 62° E 02:27:52 10° NNE visible
29 Apr 5.4 04:06:13 19° W 04:07:41 20° WNW 04:12:06 10° NNW visible
30 Apr 6.0 01:02:23 16° E 01:02:46 16° E 01:06:16 10° NE visible
30 Apr 3.8 02:47:04 72° WSW 02:47:23 74° W 02:53:34 10° N visible
30 Apr 6.0 04:32:36 10° WNW 04:33:54 11° WNW 04:35:13 10° NW visible
01 May 5.3 01:27:55 29° E 01:27:59 29° E 01:33:10 10° NNE visible
01 May 4.5 03:12:35 40° W 03:13:09 41° WNW 03:18:57 10° N visible
02 May 4.4 01:53:25 54° E 01:53:25 54° E 01:59:20 10° NNE visible
02 May 5.2 03:38:06 22° W 03:39:07 23° WNW 03:43:54 10° NNW visible
03 May 6.1 00:34:14 13° E 00:34:27 13° E 00:37:14 10° NE visible
03 May 3.8 02:18:55 85° W 02:18:55 85° W 02:25:07 10° N visible
03 May 5.9 04:03:36 11° W 04:05:17 13° WNW 04:07:50 10° NW visible
